| time (UTC) | temp F | wind direction | speed knots | gust knots | rain 1hr in | rain 24hr in | rain mn in | humidity % | barometer mb |
| 20260505200002 | 79 | 170 | 7.8 | 14.8 | 0.00 | 0.02 | 0.02 | 46 | 1006.8 |
| 20260505194500 | 79 | 212 | 8.7 | 14.8 | 0.00 | 0.02 | 0.02 | 46 | 1007.1 |
| 20260505193000 | 79 | 234 | 8.7 | 20.0 | 0.00 | 0.02 | 0.02 | 42 | 1007.2 |
| 20260505191458 | 80 | 269 | 7.8 | 14.8 | 0.00 | 0.02 | 0.02 | 39 | 1007.3 |
| 20260505185959 | 80 | 269 | 7.8 | 18.2 | 0.00 | 0.02 | 0.02 | 42 | 1007.5 |
| 20260505184457 | 79 | 219 | 10.4 | 19.1 | 0.00 | 0.02 | 0.02 | 42 | 1007.7 |
| 20260505182958 | 79 | 186 | 7.8 | 14.8 | 0.00 | 0.02 | 0.02 | 43 | 1007.8 |
| 20260505181500 | 79 | 203 | 8.7 | 20.9 | 0.00 | 0.02 | 0.02 | 44 | 1008.2 |
| 20260505175959 | 78 | 202 | 8.7 | 14.8 | 0.00 | 0.02 | 0.02 | 45 | 1008.1 |
| 20260505174457 | 79 | 209 | 7.0 | 12.2 | 0.00 | 0.02 | 0.02 | 46 | 1008.2 |
| 20260505172958 | 78 | 205 | 7.8 | 16.5 | 0.00 | 0.02 | 0.02 | 47 | 1008.2 |
| 20260505171458 | 78 | 180 | 8.7 | 16.5 | 0.00 | 0.02 | 0.02 | 47 | 1008.5 |
| 20260505165959 | 77 | 208 | 6.1 | 13.0 | 0.00 | 0.02 | 0.02 | 54 | 1008.5 |
| 20260505164458 | 77 | 278 | 7.0 | 14.8 | 0.00 | 0.02 | 0.02 | 54 | 1008.8 |
| 20260505162958 | 76 | 178 | 7.0 | 14.8 | 0.00 | 0.02 | 0.02 | 53 | 1009.1 |
| 20260505161458 | 75 | 238 | 6.1 | 12.2 | 0.00 | 0.02 | 0.02 | 55 | 1009.4 |
| 20260505152957 | 73 | 263 | 4.3 | 7.8 | 0.00 | 0.02 | 0.02 | 61 | 1009.7 |
| 20260505151500 | 72 | 248 | 5.2 | 12.2 | 0.00 | 0.02 | 0.02 | 61 | 1009.6 |
| 20260505124458 | 62 | 208 | 3.5 | 7.0 | 0.00 | 0.02 | 0.02 | 78 | 1010.6 |
| 20260505122958 | 60 | 174 | 1.7 | 3.5 | 0.00 | 0.02 | 0.02 | 82 | 1010.3 |
| 20260505121500 | 58 | 259 | 1.7 | 3.5 | 0.00 | 0.02 | 0.02 | 83 | 1010.3 |
| 20260505115959 | 56 | 224 | 0.9 | 3.5 | 0.00 | 0.02 | 0.02 | 87 | 1010.3 |
| 20260505114458 | 54 | 351 | 0.0 | 1.7 | 0.00 | 0.02 | 0.02 | 90 | 1010.3 |
| 20260505112958 | 53 | 351 | 0.0 | 2.6 | 0.00 | 0.02 | 0.02 | 91 | 1010.2 |
| 20260505111458 | 53 | 169 | 0.0 | 1.7 | 0.00 | 0.02 | 0.02 | 90 | 1010.1 |
| 20260505101458 | 52 | 45 | 0.9 | 4.3 | 0.00 | 0.02 | 0.02 | 89 | 1009.8 |
| 20260505100000 | 53 | 46 | 1.7 | 2.6 | 0.00 | 0.02 | 0.02 | 88 | 1009.7 |
| 20260505094457 | 53 | 46 | 0.0 | 2.6 | 0.00 | 0.02 | 0.02 | 88 | 1009.5 |
| 20260505093001 | 54 | 38 | 0.9 | 1.7 | 0.00 | 0.02 | 0.02 | 86 | 1009.4 |
| 20260505091458 | 54 | 38 | 0.9 | 1.7 | 0.00 | 0.02 | 0.02 | 86 | 1009.4 |
| 20260505090003 | 55 | 136 | 1.7 | 4.3 | 0.02 | 0.02 | 0.02 | 84 | 1009.4 |
| 20260505084500 | 56 | 115 | 0.9 | 2.6 | 0.02 | 0.02 | 0.02 | 82 | 1009.5 |
| 20260505082958 | 56 | 157 | 0.9 | 2.6 | 0.02 | 0.02 | 0.02 | 79 | 1009.6 |
| 20260505081458 | 58 | 314 | 1.7 | 3.5 | 0.02 | 0.02 | 0.02 | 76 | 1009.6 |
| 20260505075958 | 59 | 225 | 2.6 | 4.3 | 0.00 | 0.00 | 0.00 | 73 | 1009.6 |
| 20260505074457 | 59 | 244 | 3.5 | 7.8 | 0.00 | 0.00 | 0.00 | 72 | 1009.4 |
| 20260505072957 | 60 | 293 | 2.6 | 5.2 | 0.00 | 0.00 | 0.00 | 69 | 1009.2 |
| 20260505071459 | 60 | 199 | 2.6 | 4.3 | 0.00 | 0.00 | 0.00 | 69 | 1009.3 |
| 20260505070004 | 59 | 204 | 2.6 | 5.2 | 0.00 | 0.00 | 0.00 | 68 | 1009.3 |
| 20260505064457 | 59 | 232 | 2.6 | 6.1 | 0.00 | 0.00 | 0.00 | 68 | 1009.4 |
| 20260505062957 | 58 | 242 | 0.9 | 4.3 | 0.00 | 0.00 | 0.00 | 69 | 1009.3 |
| 20260505061457 | 56 | 290 | 0.0 | 2.6 | 0.00 | 0.00 | 0.00 | 70 | 1009.5 |
| 20260505060003 | 56 | 323 | 0.9 | 2.6 | 0.00 | 0.00 | 0.00 | 70 | 1009.5 |
| 20260505054457 | 56 | 324 | 0.0 | 0.9 | 0.00 | 0.00 | 0.00 | 67 | 1009.4 |
| 20260505052957 | 58 | 325 | 0.9 | 1.7 | 0.00 | 0.00 | 0.00 | 65 | 1009.5 |
| 20260505051457 | 58 | 290 | 0.9 | 1.7 | 0.00 | 0.00 | 0.00 | 64 | 1009.4 |
| 20260505041459 | 60 | 222 | 1.7 | 5.2 | 0.00 | 0.00 | 0.00 | 61 | 1009.0 |
| 20260505040003 | 61 | 304 | 1.7 | 4.3 | 0.00 | 0.00 | 0.00 | 59 | 1008.9 |
| 20260505034459 | 61 | 237 | 2.6 | 5.2 | 0.00 | 0.00 | 0.00 | 58 | 1008.9 |
| 20260505033002 | 61 | 209 | 2.6 | 4.3 | 0.00 | 0.00 | 0.00 | 58 | 1009.0 |
| 20260505031459 | 62 | 214 | 1.7 | 5.2 | 0.00 | 0.00 | 0.00 | 57 | 1009.0 |
| 20260505030000 | 62 | 225 | 2.6 | 7.0 | 0.00 | 0.00 | 0.00 | 56 | 1009.0 |
| 20260505024459 | 62 | 215 | 3.5 | 8.7 | 0.00 | 0.00 | 0.00 | 56 | 1009.2 |
| 20260505022958 | 62 | 169 | 3.5 | 6.1 | 0.00 | 0.00 | 0.00 | 56 | 1009.1 |
| 20260505021459 | 62 | 184 | 3.5 | 5.2 | 0.00 | 0.00 | 0.00 | 56 | 1009.2 |
| 20260505020002 | 62 | 203 | 3.5 | 6.1 | 0.00 | 0.00 | 0.00 | 55 | 1009.2 |
| 20260505014501 | 63 | 187 | 2.6 | 4.3 | 0.00 | 0.00 | 0.00 | 55 | 1009.4 |
| 20260505012959 | 63 | 199 | 2.6 | 6.1 | 0.00 | 0.00 | 0.00 | 55 | 1009.1 |
| 20260505011458 | 63 | 201 | 2.6 | 5.2 | 0.00 | 0.00 | 0.00 | 54 | 1009.0 |
| 20260505010013 | 64 | 168 | 3.5 | 8.7 | 0.00 | 0.00 | 0.00 | 53 | 1009.0 |
| 20260505004459 | 64 | 193 | 3.5 | 8.7 | 0.00 | 0.00 | 0.00 | 52 | 1008.9 |
| 20260505003001 | 65 | 185 | 3.5 | 7.0 | 0.00 | 0.00 | 0.00 | 51 | 1008.8 |
| 20260505001459 | 65 | 182 | 4.3 | 10.4 | 0.00 | 0.00 | 0.00 | 50 | 1008.6 |
| 20260505000000 | 66 | 176 | 4.3 | 7.8 | 0.00 | 0.00 | 0.00 | 50 | 1008.5 |
| 20260504234459 | 67 | 192 | 5.2 | 9.6 | 0.00 | 0.00 | 0.00 | 50 | 1008.4 |
| 20260504232959 | 68 | 171 | 7.0 | 16.5 | 0.00 | 0.00 | 0.00 | 48 | 1008.2 |
| 20260504231501 | 69 | 162 | 7.0 | 13.0 | 0.00 | 0.00 | 0.00 | 46 | 1008.1 |
| 20260504230004 | 70 | 201 | 6.1 | 12.2 | 0.00 | 0.00 | 0.00 | 45 | 1007.8 |
| 20260504224458 | 70 | 173 | 5.2 | 10.4 | 0.00 | 0.00 | 0.00 | 44 | 1007.7 |
| 20260504222959 | 70 | 209 | 5.2 | 9.6 | 0.00 | 0.00 | 0.00 | 45 | 1007.6 |
| 20260504221459 | 70 | 224 | 5.2 | 11.3 | 0.00 | 0.00 | 0.00 | 45 | 1007.8 |
| 20260504220002 | 70 | 211 | 6.1 | 9.6 | 0.00 | 0.00 | 0.00 | 45 | 1007.9 |
| 20260504214458 | 71 | 202 | 7.0 | 13.0 | 0.00 | 0.00 | 0.00 | 45 | 1008.0 |
| 20260504212959 | 71 | 222 | 5.2 | 9.6 | 0.00 | 0.00 | 0.00 | 46 | 1008.2 |
| 20260504211459 | 71 | 194 | 4.3 | 7.8 | 0.00 | 0.00 | 0.00 | 46 | 1008.2 |
| 20260504210003 | 71 | 173 | 6.1 | 13.0 | 0.00 | 0.00 | 0.00 | 45 | 1008.2 |
| 20260504204458 | 71 | 216 | 6.1 | 13.0 | 0.00 | 0.00 | 0.00 | 43 | 1008.3 |
| 20260504203001 | 71 | 169 | 6.1 | 13.9 | 0.00 | 0.00 | 0.00 | 44 | 1008.6 |
| 20260504201459 | 70 | 208 | 7.0 | 13.0 | 0.00 | 0.00 | 0.00 | 44 | 1008.6 |